[[{"header":{"parameterUnit":"m.s-1","parameterCategory":1,"la1":30.2991,"la2":30.254,"lo1":-89.0895,"lo2":-89.0444,"dy":0.0017,"dx":0.0017,"nx":28,"ny":28,"refTime":"2024-02-20T09:00:00:Z","depth":0,"parameterNumber":2,"parameterNumberName":"U-component_of_WINDS"},"data":[0,0,0,0,0,0,0,0,0,0,0,0,0,0,0,0,0,0,0,0,0,0,0,0,0,0,0,0,0,0,0,0,0,0,0,0,0,0,0,0,0,0,0,0,0,0,0,0,0,0,0,0,0,0,0,0,0,0,1.0273,1.0274,0,1.0417,1.0419,1.042,1.0462,1.0461,1.0461,1.046,1.0607,1.0612,1.0616,0,0,0,0,0,0,0,0,0,0,0,0,0,1.0034,1.0038,1.0273,1.0275,1.0276,1.0417,1.0419,1.0421,1.0462,1.0461,1.046,1.0459,1.0606,1.0611,1.0617,0,0,0,0,0,0,0,0,0,0,0,0,0,1.0154,1.004,1.0272,1.0314,1.0319,1.0416,1.0419,1.0421,1.0462,1.0461,1.046,1.0459,1.0604,1.0611,1.0617,1.0683,0,0,1.0639,1.0642,0,0,0,0,0,0,0,0,1.0147,1.0163,1.0306,1.0311,1.0317,1.042,1.0388,1.0509,1.0463,1.0408,1.046,1.0458,1.0546,1.0558,1.0587,1.069,1.0696,1.0639,1.0643,1.0646,1.0648,0,0,0,0,0,0,0,1.0139,1.0157,1.033,1.0308,1.0315,1.0326,1.0341,1.0412,1.0482,1.0413,1.0416,1.0433,1.0549,1.058,1.0591,1.0699,1.0639,1.0645,1.065,1.0652,1.0864,1.0865,0,0,0,0,0,0,1.0123,1.0149,1.0325,1.0334,1.0228,1.0331,1.0348,1.0388,1.0481,1.0494,1.0433,1.0434,1.0569,1.0583,1.0596,1.068,1.0646,1.0653,1.0657,1.0862,1.0864,1.0865,0,0,0,0,0,0,1.0118,1.0138,1.0319,1.0243,1.0267,1.0336,1.0381,1.0392,1.0423,1.0497,1.0509,1.0453,1.0569,1.0586,1.0661,1.0685,1.0656,1.0662,1.086,1.0863,1.0865,1.0846,0,0,0,0,0,0,1.0111,1.0136,1.0162,1.0243,1.0271,1.0382,1.0382,1.0396,1.0435,1.0437,1.0518,1.053,1.0569,1.0651,1.0668,1.0694,1.0668,1.0859,1.0861,1.0864,1.0845,1.0848,1.085,0,0,0,0,0,1.0102,1.0151,1.0163,1.0184,1.0304,1.0383,1.0399,1.0443,1.0437,1.0463,1.0511,1.0528,1.068,1.0658,1.0678,1.0707,1.0857,1.0861,1.0864,1.0844,1.0847,1.085,0,0,0,0,0,0,1.0071,1.0162,1.0177,1.0253,1.031,1.039,1.0425,1.0444,1.0504,1.0504,1.0555,1.0573,1.0644,1.0683,1.0657,1.0775,1.0769,1.0776,1.0747,1.0751,1.0753,1.0742,1.0674,0,0,0,0,0,1.0073,1.0129,1.0206,1.0266,1.0294,1.0355,1.0391,1.0419,1.0481,1.0505,1.0557,1.0616,1.0677,1.0716,1.0776,1.0851,1.0869,1.0881,1.0883,1.0884,1.089,1.0933,1.0939,1.0876,1.0876,1.0876,0,0,1.0077,1.0134,1.0167,1.0262,1.0309,1.0367,1.0375,1.0435,1.0478,1.0514,1.0588,1.0629,1.0698,1.0773,1.0809,1.0807,1.0912,1.0889,1.0889,1.0894,1.0937,1.0942,1.0948,1.0878,1.0878,1.0878,0,0,1.0115,1.0164,1.0219,1.0267,1.0339,1.0379,1.0392,1.047,1.0498,1.0573,1.0601,1.0653,1.0757,1.0806,1.0843,1.09,1.0918,1.0918,1.093,1.0971,1.0976,1.0981,1.1001,1.1007,1.0924,1.0924,1.0924,0,1.0111,1.0199,1.0245,1.0305,1.0345,1.0381,1.0437,1.0481,1.0569,1.0596,1.0594,1.0726,1.0775,1.0861,1.0875,1.0905,1.0922,1.0909,1.0971,1.0977,1.0982,1.1001,1.1009,1.0923,1.0923,1.0923,1.0923,0,1.0191,1.0252,1.0288,1.0372,1.0417,1.0475,1.053,1.057,1.0595,1.0635,1.0711,1.0771,1.0844,1.0867,1.0892,1.0958,1.0955,1.0961,1.0956,1.0986,1.1006,1.1014,1.0923,1.0923,1.0923,1.0923,0,0,1.0212,1.0321,1.0334,1.0373,1.0455,1.0503,1.0562,1.0634,1.0667,1.0727,1.0778,1.0866,1.0872,1.0915,1.0946,1.0982,1.1023,1.0984,1.0987,1.0989,1.1099,1.1093,1.1101,1.1036,1.1037,1.1039,1.1093,0,1.026,1.0367,1.0411,1.0498,1.0554,1.0589,1.0641,1.0697,1.0736,1.079,1.0834,1.0895,1.0899,1.0925,1.0963,1.101,1.1046,1.1007,1.1084,1.1086,1.1065,1.1112,1.1106,1.1154,1.1101,1.1103,1.1104,0,1.033,1.039,1.0483,1.0558,1.0584,1.063,1.0699,1.075,1.0815,1.0841,1.0889,1.0918,1.0982,1.0973,1.1062,1.1034,1.1068,1.1096,1.1099,1.1108,1.1096,1.1121,1.1171,1.1178,1.1116,1.1115,1.1114,0,1.0335,1.044,1.0509,1.0541,1.0631,1.0662,1.0702,1.0765,1.0806,1.0866,1.0893,1.096,1.0997,1.1049,1.1095,1.1084,1.118,1.1174,1.1203,1.1202,1.1221,1.1219,1.1277,1.1244,1.1243,1.1243,1.1243,0,1.0383,1.0439,1.0512,1.0555,1.0618,1.0668,1.0729,1.077,1.0827,1.0878,1.0912,1.0959,1.1018,1.1073,1.111,1.1178,1.1194,1.1217,1.1226,1.1214,1.1211,1.1236,1.1234,1.1245,1.1245,1.1244,1.1244,0,1.04,1.0451,1.0529,1.0608,1.063,1.0673,1.0741,1.0783,1.0824,1.0889,1.0907,1.0971,1.1038,1.109,1.1176,1.1201,1.1273,1.1283,1.1251,1.1255,1.1281,1.1278,1.1357,1.137,1.1328,1.1328,1.1328,0,1.0427,1.047,1.0555,1.0591,1.063,1.0689,1.0731,1.0782,1.0823,1.0901,1.0934,1.1003,1.1061,1.1165,1.122,1.1287,1.1298,1.1322,1.1308,1.1295,1.1298,1.1295,1.13,1.1323,1.1323,1.1323,1.1323,0,1.047,1.0493,1.0552,1.062,1.0668,1.0724,1.0781,1.0809,1.087,1.0915,1.0984,1.1029,1.1117,1.1185,1.1258,1.1298,1.1321,1.1327,1.1337,1.1325,1.1304,1.1316,1.1255,1.1325,1.1325,1.1325,1.1324,1.1324,1.0492,1.0533,1.0598,1.0662,1.071,1.0763,1.0807,1.0854,1.0911,1.0987,1.1014,1.1085,1.1149,1.1248,1.129,1.1346,1.1347,1.1361,1.1365,1.1368,1.1366,1.1296,1.1359,1.1359,1.1359,1.1359,1.1359,0,1.0537,1.0581,1.0639,1.0717,1.0768,1.0786,1.0849,1.089,1.0952,1.101,1.1066,1.1145,1.1212,1.1272,1.1341,1.1374,1.1387,1.1391,1.1389,1.1398,1.1361,1.1346,1.138,1.138,1.138,1.138,1.138,1.138,1.0565,1.0634,1.0666,1.0759,1.0803,1.0873,1.0907,1.0956,1.1002,1.1089,1.1144,1.1183,1.1242,1.1316,1.1378,1.1394,1.1418,1.142,1.1438,1.1403,1.14,1.1398,1.1383,1.1424,1.1424,1.147,1.147,1.147]},{"header":{"parameterUnit":"m.s-1","parameterCategory":1,"la1":30.2991,"la2":30.254,"lo1":-89.0895,"lo2":-89.0444,"dy":0.0017,"dx":0.0017,"nx":28,"ny":28,"refTime":"2024-02-20T09:00:00:Z","depth":0,"parameterNumber":3,"parameterNumberName":"V-component_of_WINDS"},"data":[0,0,0,0,0,0,0,0,0,0,0,0,0,0,0,0,0,0,0,0,0,0,0,0,0,0,0,0,0,0,0,0,0,0,0,0,0,0,0,0,0,0,0,0,0,0,0,0,0,0,0,0,0,0,0,0,0,0,2.1402,2.1401,0,2.138,2.138,2.138,2.1327,2.1326,2.1325,2.1324,2.1304,2.1305,2.1305,0,0,0,0,0,0,0,0,0,0,0,0,0,2.1398,2.1399,2.1402,2.1401,2.1401,2.1381,2.138,2.138,2.1328,2.1326,2.1325,2.1324,2.1304,2.1305,2.1305,0,0,0,0,0,0,0,0,0,0,0,0,0,2.1391,2.1399,2.1402,2.1372,2.137,2.1381,2.138,2.138,2.1328,2.1326,2.1325,2.1323,2.1304,2.1305,2.1305,2.1344,0,0,2.1308,2.1308,0,0,0,0,0,0,0,0,2.1391,2.1391,2.1377,2.1374,2.1371,2.1355,2.1372,2.1368,2.1328,2.1344,2.1324,2.1322,2.1323,2.1322,2.1321,2.1343,2.1342,2.1308,2.1308,2.1309,2.1309,0,0,0,0,0,0,0,2.1392,2.1392,2.1393,2.1377,2.1373,2.1361,2.1358,2.1371,2.1343,2.1342,2.1338,2.1337,2.1321,2.1321,2.1321,2.1342,2.1308,2.1308,2.1309,2.1309,2.1393,2.1395,0,0,0,0,0,0,2.1396,2.1392,2.1394,2.1393,2.1377,2.1362,2.1359,2.1362,2.1343,2.1338,2.1338,2.1334,2.132,2.132,2.132,2.1363,2.1309,2.1309,2.131,2.1391,2.1393,2.1395,0,0,0,0,0,0,2.1397,2.1397,2.1395,2.1391,2.139,2.1364,2.1368,2.1362,2.1362,2.1339,2.1334,2.1343,2.1319,2.1319,2.1338,2.1361,2.131,2.131,2.1389,2.1392,2.1394,2.145,0,0,0,0,0,0,2.1397,2.1397,2.1411,2.1392,2.1391,2.1413,2.1369,2.1363,2.1364,2.1358,2.1343,2.1339,2.1318,2.1337,2.1339,2.1362,2.1311,2.1387,2.139,2.1394,2.1446,2.1454,2.1461,0,0,0,0,0,2.1397,2.1428,2.1412,2.1413,2.1407,2.1414,2.1414,2.1388,2.1366,2.138,2.1365,2.1339,2.1359,2.1339,2.1341,2.1364,2.1385,2.139,2.1393,2.1442,2.1452,2.1461,0,0,0,0,0,0,2.1451,2.1425,2.1407,2.1433,2.1426,2.1405,2.1422,2.14,2.14,2.1395,2.1364,2.1361,2.1385,2.1377,2.1356,2.14,2.1368,2.1372,2.1405,2.1414,2.1422,2.1423,2.1312,0,0,0,0,0,2.1466,2.1473,2.145,2.1476,2.1473,2.1448,2.1451,2.1432,2.1424,2.1421,2.1407,2.1401,2.1406,2.141,2.1413,2.1445,2.144,2.1462,2.1469,2.1476,2.148,2.1496,2.1505,2.1408,2.1408,2.1408,0,0,2.1497,2.1484,2.149,2.1486,2.1479,2.1487,2.1446,2.1457,2.1464,2.1423,2.144,2.143,2.1421,2.1447,2.1457,2.1441,2.1506,2.1481,2.1486,2.1486,2.1501,2.151,2.1518,2.1411,2.1411,2.141,0,0,2.1557,2.1548,2.1568,2.1561,2.155,2.1534,2.1539,2.1522,2.1513,2.153,2.1499,2.1507,2.1516,2.151,2.1509,2.1569,2.1545,2.1571,2.161,2.1627,2.1634,2.1641,2.1662,2.167,2.1575,2.1575,2.1575,0,2.1597,2.1609,2.1581,2.1594,2.1593,2.1556,2.1576,2.1571,2.1563,2.1563,2.1544,2.1555,2.1546,2.157,2.1585,2.1585,2.159,2.1572,2.1635,2.1642,2.1647,2.1667,2.1675,2.1578,2.1578,2.1577,2.1577,0,2.1658,2.1667,2.1684,2.1676,2.1677,2.1694,2.1669,2.1674,2.1656,2.1641,2.1659,2.1647,2.1647,2.1652,2.1634,2.1674,2.1663,2.1641,2.1607,2.166,2.1678,2.1686,2.1583,2.1581,2.1581,2.158,0,0,2.1752,2.1728,2.1735,2.1731,2.1716,2.1723,2.1738,2.1737,2.1742,2.1738,2.175,2.1758,2.1737,2.1736,2.1717,2.1731,2.1779,2.1706,2.1706,2.172,2.1822,2.1839,2.1848,2.1764,2.1765,2.1766,2.1822,0,2.1809,2.1832,2.1808,2.1837,2.1845,2.181,2.1823,2.1816,2.1804,2.1809,2.1795,2.1801,2.1773,2.1772,2.1785,2.1771,2.1799,2.1766,2.1775,2.1775,2.1777,2.1857,2.1875,2.1929,2.1829,2.1831,2.1831,0,2.1878,2.1876,2.1905,2.1889,2.1891,2.1904,2.1901,2.1907,2.1898,2.1888,2.1887,2.1864,2.1879,2.1847,2.1866,2.1845,2.1847,2.1841,2.1842,2.1842,2.1806,2.1858,2.1945,2.1953,2.1842,2.1841,2.1841,0,2.1942,2.1947,2.1965,2.1963,2.1945,2.1954,2.1947,2.1937,2.1938,2.1937,2.1937,2.1938,2.1938,2.194,2.1918,2.1897,2.194,2.1907,2.1933,2.1933,2.1943,2.1942,2.2031,2.1945,2.1945,2.1945,2.1945,0,2.2008,2.2027,2.1994,2.2005,2.2026,2.1999,2.2021,2.201,2.2001,2.201,2.1981,2.199,2.1961,2.1968,2.1951,2.197,2.197,2.1963,2.1958,2.1965,2.1966,2.1966,2.1961,2.1947,2.1947,2.1946,2.1946,0,2.2083,2.2062,2.2079,2.2061,2.2056,2.2073,2.2057,2.2067,2.2052,2.2064,2.2065,2.2043,2.2049,2.2028,2.2031,2.2019,2.2047,2.2037,2.205,2.2046,2.2073,2.2071,2.2164,2.2175,2.2083,2.2084,2.2085,0,2.2126,2.214,2.2123,2.2126,2.2121,2.2127,2.2128,2.2102,2.2105,2.2096,2.2107,2.2111,2.2112,2.2124,2.2108,2.211,2.2099,2.2132,2.2099,2.2106,2.2099,2.2098,2.21,2.2138,2.214,2.214,2.2141,0,2.2204,2.2193,2.2195,2.2194,2.2197,2.2195,2.2191,2.2196,2.2168,2.2172,2.2178,2.2179,2.2182,2.2185,2.2184,2.2178,2.2155,2.2152,2.2158,2.2165,2.2172,2.2168,2.2068,2.2149,2.2149,2.2148,2.2148,2.2147,2.2264,2.2275,2.2264,2.2268,2.2263,2.226,2.2268,2.2255,2.2259,2.2258,2.2243,2.2252,2.2244,2.224,2.2235,2.2242,2.2227,2.2236,2.2238,2.224,2.2245,2.2171,2.2242,2.2242,2.2241,2.2241,2.2241,0,2.234,2.2332,2.2336,2.2331,2.2334,2.2313,2.2307,2.2312,2.2319,2.2313,2.2315,2.2322,2.2326,2.2311,2.2313,2.2321,2.2311,2.2322,2.2321,2.232,2.2258,2.2253,2.2331,2.2331,2.2331,2.2331,2.2331,2.2331,2.238,2.2397,2.2385,2.24,2.2391,2.2399,2.2398,2.2395,2.239,2.2399,2.2402,2.2392,2.2382,2.2383,2.2386,2.2381,2.2383,2.2399,2.2391,2.2333,2.2324,2.2316,2.2311,2.2399,2.2399,2.2452,2.2452,2.2452]}]]